This demonstration page uses our WeatherBlox Daily Observations layout. Learn more.

Left ArrowRight Arrow

36.17497, -115.13722

Hourly Observations for November 22, 2021

Temp ( °F °C ) Dew Point ( °F °C ) Humidity (%) Winds ( mph kmh ) Pressure ( in mb ) Visibility ( mi km ) Precip ( " mm )
12:53 am 00:53 Clear 50 10 14 -10 24 24 VRB 3 6 30.36 1028 10 16 0.00 0.00
1:53 am 01:53 Clear 47 8.3 12 -11.1 24 24 Calm 30.36 1028 10 16 0.00 0.00
2:53 am 02:53 Clear 47 8.3 14 -10 26 26 WNW 7 11 30.36 1028 10 16 0.00 0.00
3:53 am 03:53 Clear 48 8.9 13 -10.6 24 24 NW 8 13 30.35 1028 10 16 0.00 0.00
4:53 am 04:53 Clear 47 8.3 14 -10 26 26 W 7 11 30.36 1028 10 16 0.00 0.00
5:53 am 05:53 Clear 45 7.2 14 -10 29 29 NW 5 7 30.37 1028 10 16 0.00 0.00
6:53 am 06:53 Sunny 45 7.2 17 -8.3 33 33 W 5 7 30.38 1029 10 16 0.00 0.00
7:53 am 07:53 Sunny 50 10 17 -8.3 27 27 NW 3 6 30.39 1029 10 16 0.00 0.00
8:53 am 08:53 Sunny 56 13.3 16 -8.9 21 21 Calm 30.37 1029 10 16 0.00 0.00
9:53 am 09:53 Sunny 60 15.6 14 -10 16 16 Calm 30.36 1028 10 16 0.00 0.00
10:53 am 10:53 Sunny 62 16.7 14 -10 15 15 Calm 30.32 1027 10 16 0.00 0.00
11:53 am 11:53 Sunny 64 17.8 14 -10 14 14 Calm 30.29 1026 10 16 0.00 0.00
12:53 pm 12:53 Sunny 66 18.9 13 -10.6 13 13 Calm 30.24 1024 10 16 0.00 0.00
1:53 pm 13:53 Sunny 68 20 13 -10.6 12 12 Calm 30.21 1023 10 16 0.00 0.00
2:53 pm 14:53 Sunny 68 20 13 -10.6 12 12 SSE 5 7 30.19 1022 10 16 0.00 0.00
3:53 pm 15:53 Sunny 68 20 13 -10.6 12 12 SW 5 7 30.17 1022 10 16 0.00 0.00
4:53 pm 16:53 Clear 67 19.4 14 -10 13 13 S 3 6 30.16 1021 10 16 0.00 0.00
5:53 pm 17:53 Clear 61 16.1 16 -8.9 17 17 W 3 6 30.16 1022 10 16 0.00 0.00
6:53 pm 18:53 Clear 59 15 19 -7.2 21 21 W 5 7 30.16 1021 10 16 0.00 0.00
7:53 pm 19:53 Clear 58 14.4 19 -7.2 22 22 WNW 3 6 30.14 1021 10 16 0.00 0.00
8:53 pm 20:53 Clear 56 13.3 20 -6.7 24 24 NW 5 7 30.14 1021 10 16 0.00 0.00
9:53 pm 21:53 Clear 57 13.9 20 -6.7 24 24 W 5 7 30.11 1020 10 16 0.00 0.00
10:53 pm 22:53 Clear 54 12.2 20 -6.7 26 26 W 6 9 30.10 1019 10 16 0.00 0.00
11:53 pm 23:53 Clear 53 11.7 20 -6.7 27 27 NNW 5 7 30.09 1019 10 16 0.00 0.00

Powered by AerisWeather